Vertical_Velocity
4 6 6 4 2 0 -1 1 0 -2 -3 1 0 -2 -2 -1 0 1 1 1 0 0 0 -0 -0 -0 0 0 1 1 1 2 2 1 1 2 1 1 1 0 -0 -0 -1 -0 -0 -0 -0 -0 -0 -0 -0 -0 -0 -0 -0 -0 -0 -0 -0 -0 0 0 1 1 1 1 1 1 -0 -1 -2 -2 -1 -1 0 1 1 1 0 0 0 -0 -0 -0 -0 -0
2 4 6 5 2 0 -1 2 2 0 -2 -1 0 -0 -0 -0 1 1 2 1 1 0 -0 -1 -1 -0 0 0 0 1 1 2 2 1 1 1 2 2 1 0 -0 -1 -1 -0 -0 -0 -0 -0 -0 -0 -0 -0 -0 -0 -0 -0 -0 -0 -0 -0 -0 0 0 1 1 1 1 1 -0 -1 -2 -2 -2 -1 -0 0 1 1 0 0 -0 -0 -0 -0 -0 -0
3 3 5 4 2 0 -0 2 3 2 1 -1 -1 -0 1 1 1 2 2 0 0 0 0 -1 -1 -1 -0 0 0 0 1 1 1 1 1 1 2 2 1 1 -0 -0 -0 -0 -0 -0 -0 -1 -0 -0 0 0 0 -0 -0 -0 -0 -0 -0 -0 0 0 0 1 1 1 1 1 0 -0 -1 -2 -2 -1 -0 0 1 1 0 0 -0 -0 -0 -0 -0 -0
4 2 2 4 3 1 1 1 1 2 3 0 -1 -1 1 1 1 2 2 0 -0 -0 -0 -0 -1 -1 -1 -0 0 0 0 1 1 1 0 1 1 2 1 1 0 -0 -0 0 0 0 -0 -0 -0 -0 0 0 0 0 0 0 0 -0 -0 0 0 1 1 1 1 1 1 1 0 -0 -1 -1 -1 -1 -0 0 1 1 0 0 -0 -0 -0 -0 -0 -0
4 1 0 4 3 1 1 2 1 1 2 1 -0 -0 -0 0 1 1 1 1 0 -0 -1 -1 -1 -1 -1 -0 -0 0 0 0 0 -0 0 1 1 1 1 1 0 0 0 0 0 0 0 0 -0 0 0 0 1 1 1 1 1 1 1 1 1 1 1 1 1 1 1 1 0 -0 -0 -1 -0 -0 -0 0 1 1 0 0 -0 -0 -0 -0 -0 -0
5 2 -0 2 2 2 2 2 1 1 0 -0 0 0 -1 -0 0 1 1 1 1 0 -0 -0 -1 -1 -1 -1 -0 0 0 -0 -0 -0 0 1 1 1 1 1 1 1 1 1 1 0 0 0 0 0 0 0 0 1 1 1 1 1 2 2 2 1 1 1 1 1 1 1 0 0 -0 -0 -0 -0 0 0 1 1 1 0 0 -0 -0 -0 -0 -0
5 4 2 0 1 2 4 2 2 1 0 -1 0 1 1 -0 -0 0 0 1 2 1 1 0 -0 -1 -2 -1 -1 0 0 -0 -0 -0 0 1 1 1 1 1 1 1 1 1 1 0 0 0 0 0 0 0 0 0 1 1 2 2 2 2 2 2 1 1 1 1 1 1 0 0 0 0 0 0 0 0 0 0 1 1 0 0 0 -0 -0 -0
4 4 4 1 -0 0 3 3 2 2 -0 -1 1 2 2 1 1 1 -0 0 1 1 1 1 1 1 -1 -1 -1 0 1 1 -0 -0 -0 0 1 1 1 1 1 1 1 1 1 0 0 0 0 0 0 0 0 0 1 1 2 2 2 2 2 1 1 1 1 1 1 1 1 0 0 0 0 -0 -0 -0 0 0 0 0 0 0 0 0 -0 -0
2 2 2 2 1 -1 -1 1 3 3 -0 -1 0 2 2 1 1 1 1 0 0 0 1 2 3 3 2 1 0 0 1 1 1 0 -0 0 0 0 1 1 1 1 1 1 1 0 0 0 0 0 0 0 0 0 1 1 2 2 1 1 1 1 0 1 1 1 0 0 0 0 0 0 -0 -0 -0 -0 -0 0 0 0 0 0 0 -0 -0 -0
2 1 1 1 2 1 -1 -2 0 2 1 -2 -1 0 2 -0 -1 -0 1 1 1 0 0 2 3 4 3 3 2 1 -0 1 1 1 -0 -0 0 1 1 1 1 1 1 1 1 0 0 0 0 0 0 0 0 1 1 1 1 1 1 0 0 0 0 1 1 0 0 0 0 0 -0 -0 -0 -0 -0 -0 -0 -0 0 0 0 -0 -0 -0 -0 -0
1 1 1 0 1 2 1 -1 -1 0 1 -1 -2 -1 0 -1 -2 -3 -1 1 1 1 -0 1 2 3 2 2 2 1 -0 -0 0 0 0 0 0 1 1 1 1 1 1 1 1 1 0 0 0 0 0 0 1 1 1 2 1 1 0 -0 -0 0 1 1 1 0 0 0 0 -0 -0 -0 -0 -0 -0 -0 -0 -0 -0 -0 -0 -0 -0 -0 -0 -0
1 1 1 1 1 2 2 0 0 1 2 1 -0 -1 -0 -0 -1 -2 -3 -0 1 1 -1 -0 1 2 1 1 1 1 0 -1 -1 -0 0 0 0 0 1 1 1 1 1 1 1 1 0 0 1 0 0 0 1 1 2 2 1 1 0 0 0 1 1 1 1 1 1 0 0 -0 -0 -0 -0 -0 -0 -0 -0 -0 -0 -0 -0 -0 -0 -0 -0 -0
1 1 1 0 1 2 2 1 1 2 3 2 1 -0 -1 0 0 -0 -2 -0 0 0 -1 -1 0 1 -0 0 1 1 1 -0 -0 -0 0 1 1 0 0 1 1 1 1 1 1 1 0 1 1 1 0 1 1 1 2 2 2 1 0 0 1 1 1 1 1 1 1 0 -0 -0 -0 -0 -0 -0 -0 -0 -0 -0 0 0 0 -0 -0 -0 -0 -0
1 1 0 1 1 2 2 1 0 1 2 2 1 -0 -0 1 2 1 -0 0 1 0 -1 -0 1 1 0 -0 -0 -0 0 -0 -0 0 0 0 0 0 1 1 1 1 1 1 1 0 -0 1 1 1 0 1 1 2 2 2 2 1 1 0 1 1 1 1 1 1 1 0 -0 -0 -0 -0 -0 -0 -0 -0 -0 -0 -0 -0 -0 -0 -0 -0 -0 -0
1 1 0 1 1 1 1 -0 -0 -0 1 2 1 0 1 2 2 2 1 1 1 1 0 0 1 1 1 -0 -1 -1 -0 -0 -0 0 0 1 0 0 0 1 1 0 0 1 1 0 -0 1 1 1 1 1 2 2 2 2 1 1 1 1 0 1 1 1 1 1 0 -0 -0 -0 -0 -0 -0 -0 -0 -0 -0 -0 -0 -0 -0 -0 -0 -0 -0 -0
2 1 -0 0 1 1 1 -0 -1 -1 0 1 1 0 1 1 1 2 2 1 1 1 1 1 1 0 0 -1 -1 -0 -0 0 0 0 0 1 0 -0 -0 1 1 0 -0 1 1 0 0 1 1 1 1 1 2 2 2 2 1 1 1 1 1 1 1 1 1 0 -0 -1 -1 -1 -1 -0 -0 -0 -0 -0 -0 -0 -0 -0 -0 -0 -0 -0 -0 -0
2 1 -0 -0 0 1 1 0 -1 -1 0 0 0 0 0 0 1 2 2 1 1 1 1 1 1 0 -0 -1 -1 -1 -1 1 1 1 1 1 0 -0 -0 1 1 1 -0 -0 0 0 1 1 1 1 1 2 2 2 2 2 1 1 1 1 1 1 1 1 0 -0 -0 -1 -1 -1 -1 -0 -0 -0 -0 -0 -0 -0 -0 -0 -0 -0 -0 -0 -0 -0
2 1 -0 -0 0 1 1 0 -0 -0 0 -0 -1 -1 -0 1 1 1 1 2 2 1 1 1 1 0 0 0 -0 -1 -1 1 1 1 1 0 -0 -0 0 1 2 1 -0 -0 -0 0 1 2 1 1 1 2 2 2 2 2 1 1 1 1 2 1 1 1 0 -0 -0 -1 -1 -1 -1 -0 -0 -0 -0 -0 -0 -0 -0 -0 -0 -1 -1 -1 -1 -0
1 2 1 -0 0 1 2 1 1 0 0 -0 -1 -1 -0 0 1 0 1 1 1 1 1 1 1 0 -0 -0 -1 -1 -0 1 2 1 0 -0 -1 -0 0 2 2 1 -0 -0 -0 0 2 1 1 1 2 2 2 2 2 2 2 2 2 2 2 2 1 1 0 -0 -0 -0 -0 -0 -0 -0 -0 -0 -0 -0 -0 -0 -0 -0 -1 -1 -1 -1 -0 -0
1 2 1 0 0 1 2 2 1 -0 -0 0 0 0 -0 -0 -0 -0 -0 0 1 1 1 1 1 1 -0 -1 -1 -0 1 1 2 1 -0 -0 -0 -0 -0 2 2 1 -0 -0 0 1 2 1 1 1 2 2 2 2 2 2 2 2 2 2 2 1 1 1 0 -0 -0 -0 -0 -0 -0 -0 -0 -0 -0 -0 -0 -0 -0 -1 -1 -1 -1 -0 -0 -0
1 1 1 0 0 1 3 2 1 -0 -0 1 1 1 -0 -1 -0 -0 -0 -0 0 1 1 1 1 0 -0 -0 -0 0 1 1 1 1 -1 -0 -0 -0 -0 1 2 1 -0 -0 0 1 2 2 1 2 2 2 2 2 2 2 2 2 2 2 1 1 1 0 -0 -0 -0 -0 -0 -0 0 0 0 0 0 -0 -0 -0 -0 -1 -1 -1 -0 -0 -0 -0
1 0 0 1 1 1 2 2 1 1 0 1 1 0 -0 -0 -0 -0 -0 -0 0 1 1 0 0 -0 0 0 0 0 1 1 1 1 0 1 -0 -1 -1 1 2 1 -0 -1 0 1 2 2 2 2 2 2 2 2 2 2 2 2 1 1 1 1 0 -0 -0 -0 -0 -0 -0 0 0 0 0 0 0 -0 -0 -0 -0 -1 -1 -1 -0 -0 0 0
0 0 1 1 1 1 1 2 2 1 1 1 1 0 0 1 1 0 -0 -0 0 0 0 -0 -0 0 1 0 0 0 0 1 1 1 2 1 -0 -2 -1 1 1 1 -1 -0 1 2 2 2 2 2 2 2 2 2 2 1 1 1 1 1 1 0 0 -0 -0 -0 -0 -0 0 0 0 1 0 0 0 -0 -0 -0 -0 -1 -1 -0 -0 -0 0 0
1 0 1 1 0 0 1 1 1 2 2 1 1 0 1 1 1 0 0 0 0 0 0 0 1 1 0 -0 0 1 0 0 1 2 3 1 -0 -1 -1 0 1 -0 -2 -0 2 3 3 2 2 2 3 2 2 2 2 1 1 1 1 1 0 0 -0 -0 -0 -0 -0 0 0 0 0 0 0 0 0 -0 -0 -0 -0 -1 -0 -0 -0 -0 0 0
1 1 1 1 0 0 1 1 1 2 2 1 1 1 1 1 1 1 1 1 1 0 0 1 1 1 -0 -0 1 1 -0 0 2 3 2 1 0 -0 -1 0 1 1 -1 0 2 3 3 2 2 2 3 2 2 2 1 1 1 1 1 0 0 -0 -0 -0 -0 -0 0 0 0 0 0 0 0 0 0 0 -0 -0 -0 -0 -0 -0 -0 -0 0 0
2 2 1 1 1 1 1 1 1 1 2 1 1 1 1 1 1 1 1 1 0 0 1 1 1 -0 -0 0 1 1 -0 1 2 2 2 2 0 -1 -2 0 2 2 0 1 2 3 4 2 2 2 2 2 2 1 1 1 1 1 0 0 0 -0 -0 -0 0 0 0 0 0 0 0 0 0 0 0 0 0 -0 -0 -0 -1 -1 -0 -0 0 0
2 2 2 1 1 1 1 1 1 1 1 1 1 1 1 1 1 2 1 -0 -0 1 2 1 0 -0 -0 1 1 1 1 2 1 1 1 2 2 0 -1 1 2 3 2 1 2 3 4 3 2 2 2 1 1 1 1 1 1 0 0 0 0 0 0 0 0 1 1 1 1 0 0 0 0 0 0 0 0 -0 -0 -1 -1 -1 -1 -0 -0 0
1 1 1 1 1 1 1 1 1 1 1 1 1 1 1 1 2 1 0 -1 0 1 2 1 0 0 0 0 1 1 2 2 1 -0 1 3 2 -0 -1 1 2 2 2 1 1 2 3 2 2 2 1 1 1 1 1 0 0 0 0 0 0 0 0 1 1 1 1 1 0 0 0 0 0 0 0 0 -0 -0 -1 -1 -1 -1 -1 -0 -0 -0
1 1 1 1 1 1 1 1 1 1 1 1 1 1 1 1 1 1 -0 -0 1 2 1 0 0 1 1 1 1 1 2 0 -0 -0 2 3 1 -1 -1 1 2 1 1 1 1 2 2 1 1 1 1 0 0 1 0 0 1 1 1 1 0 0 1 1 1 1 1 1 0 0 0 0 0 0 0 -0 -0 -0 -1 -1 -1 -1 -1 -0 -0 -0
1 1 1 1 1 1 1 2 1 1 1 1 1 1 1 1 1 1 0 1 1 1 0 -0 0 1 1 1 1 1 0 -0 -0 1 3 3 0 -2 -0 1 1 0 1 2 2 1 0 0 1 1 1 0 0 0 0 1 1 1 1 1 1 1 1 1 1 1 1 0 0 0 0 0 0 -0 -0 -0 -0 -0 -1 -1 -1 -1 -1 -0 -0 -0
1 1 1 1 1 1 2 2 1 1 1 1 1 1 1 1 1 1 1 1 1 1 1 0 0 0 1 2 2 1 -0 -1 0 1 3 2 0 -1 1 1 1 -0 1 2 2 1 -1 -0 0 1 1 1 1 0 1 1 1 1 1 1 0 0 0 1 1 1 0 0 0 0 -0 -0 -0 -0 -0 -0 -0 -1 -1 -1 -1 -1 -1 -0 -0 -0
1 1 1 1 1 1 2 1 1 1 1 1 1 1 1 1 1 1 1 1 1 1 1 1 1 1 2 3 2 1 -1 -1 -0 1 2 2 0 -0 1 1 1 -0 0 1 1 1 -0 -0 -0 1 2 1 1 1 1 1 1 1 1 1 0 -0 0 1 1 0 0 0 -0 -0 -0 -0 -0 -0 -0 -0 -0 -1 -1 -1 -1 -1 -1 -1 -1 -0
1 1 1 1 1 2 2 1 1 1 2 2 2 1 1 1 1 1 1 1 1 1 2 2 2 2 2 2 1 0 -1 -1 -1 0 2 1 1 0 1 1 1 0 0 1 1 0 0 -0 -0 1 2 1 1 1 1 1 1 1 1 0 -0 -0 -0 1 1 0 -0 -0 -0 -0 -0 -0 -0 -0 -0 -1 -1 -1 -1 -1 -1 -1 -1 -1 -1 -1
1 1 1 1 1 1 1 1 2 2 2 2 2 2 1 1 1 1 1 1 1 2 3 3 3 3 2 1 -0 -1 -1 -1 -1 0 2 2 1 1 1 1 1 0 1 1 1 0 0 -0 0 1 1 1 1 1 1 1 1 0 0 0 -0 -0 -0 0 0 0 -0 -0 -0 -0 -0 -0 -0 -1 -1 -1 -1 -1 -1 -1 -1 -1 -1 -1 -1 -1
1 1 1 1 1 1 1 1 2 2 2 2 2 1 1 1 1 1 1 2 2 2 2 2 2 1 0 -0 -1 -1 -1 -1 -0 1 2 1 1 1 1 1 1 1 1 1 0 1 1 -0 0 1 1 0 0 0 1 1 1 0 0 0 0 -0 -0 -0 -0 -0 -0 -0 -0 -0 -0 -0 -0 -1 -1 -1 -1 -1 -1 -1 -1 -1 -1 -1 -1 -1
1 1 1 1 1 1 1 1 2 2 2 2 2 2 2 2 2 2 2 1 1 1 0 -0 -0 -0 -0 -1 -1 -1 -1 -0 1 1 1 1 1 1 1 1 1 1 2 0 0 0 0 0 -0 0 1 0 -0 -0 -0 0 1 1 -0 -0 0 0 -0 -0 -0 -0 -0 -0 -1 -1 -0 -0 -0 -1 -1 -1 -1 -1 -1 -1 -1 -1 -1 -1 -1 -1
1 1 1 1 1 1 1 1 1 2 2 2 2 2 2 2 2 2 1 0 0 -0 -0 -0 -0 -0 -1 -1 -1 -1 -1 0 1 1 1 1 1 1 1 0 1 1 1 0 0 0 0 0 -0 -0 0 -0 -0 -0 -0 0 1 0 -0 -0 0 0 -0 -0 -0 -0 -0 -1 -1 -1 -0 -0 -0 -1 -1 -1 -1 -1 -1 -1 -1 -1 -1 -1 -1 -1
1 1 1 1 1 1 1 1 1 2 2 2 2 2 2 2 1 0 -0 -0 -0 -0 -0 -0 -0 -0 -0 -0 -0 -0 -0 0 1 1 1 1 1 1 1 1 1 1 1 1 0 0 0 0 -0 -0 -0 -0 -0 -0 -0 0 0 -0 -0 -0 0 0 -0 -0 -0 -0 -1 -1 -1 -1 -1 -0 -0 -1 -1 -1 -1 -1 -1 -1 -1 -1 -0 -1 -1 -1
1 1 1 1 1 1 1 2 2 2 3 3 3 2 1 0 -0 -0 -0 -0 0 0 0 0 -0 -0 -1 -1 -1 -0 -0 0 0 1 1 1 1 1 1 1 1 1 1 1 1 0 0 -0 -0 -0 -0 -0 -0 -0 -0 0 0 0 -0 0 0 -0 -0 -0 -0 -0 -1 -1 -1 -1 -1 -1 -1 -1 -1 -1 -1 -1 -1 -1 -1 -1 -0 -0 -1 -2
1 1 0 0 0 1 2 2 2 2 3 2 1 1 0 -0 -0 -0 -0 0 0 0 0 0 -0 -0 -1 -1 -1 -0 -0 -0 0 1 1 1 1 1 1 1 0 0 0 0 0 0 0 -0 -0 -0 0 0 -0 -0 -0 0 0 0 1 1 -0 -1 -1 -0 -0 -1 -1 -1 -1 -1 -1 -1 -1 -1 -1 -1 -1 -1 -1 -1 -1 -1 -0 0 -0 -1
1 0 -0 -0 1 1 2 1 1 1 1 0 0 -0 -0 0 0 1 0 1 0 0 0 0 -0 -0 -1 -1 -1 -0 -0 -0 0 1 1 1 1 1 1 0 -0 -0 -0 -0 -0 -0 0 0 0 -0 -0 -0 -0 -0 -0 0 1 1 1 1 -0 -1 -1 -0 -1 -1 -1 -1 -1 -1 -1 -1 -1 -1 -1 -1 -1 -1 -0 -0 -0 -0 -1 0 0 0
0 0 0 1 1 1 1 0 -0 -0 -0 -0 -0 -0 -0 0 1 1 1 1 1 0 0 0 -0 -1 -1 -1 -1 -0 0 0 0 0 1 1 1 1 0 -0 -0 -1 -1 -0 -0 -0 0 0 0 -0 -1 -0 -0 -0 -0 1 2 2 2 1 -0 -1 -1 -1 -2 -2 -1 -2 -2 -2 -1 -1 -2 -2 -2 -1 -1 -1 -0 0 0 -0 -0 -0 -0 -0
-0 0 1 1 1 1 -0 -0 -0 -0 -0 -0 -0 -1 -1 0 1 1 1 1 0 -0 0 0 -0 -0 -0 -1 -0 -0 0 0 0 0 0 0 0 0 -0 -0 -1 -0 -0 -0 -0 -0 -0 0 0 -0 -1 -1 -0 0 0 1 2 2 2 1 1 1 -0 -2 -2 -2 -1 -2 -3 -3 -3 -3 -3 -2 -2 -1 -1 -1 -1 -1 -0 -0 -0 0 0 -0
0 1 2 2 1 1 0 0 -0 -0 0 0 0 -0 -0 0 1 1 1 0 -0 0 0 0 0 0 0 -0 -0 0 0 0 0 0 0 -0 -0 -0 -0 -0 -0 -0 0 1 0 -0 -1 -0 -0 -1 -1 -0 -0 -0 -0 1 1 2 2 1 1 1 -0 -1 -1 -0 -1 -3 -3 -4 -4 -4 -4 -3 -2 -2 -2 -1 -1 -1 -1 -1 -1 -0 0 0
1 2 2 2 1 1 1 -0 -0 0 1 1 1 0 0 1 1 0 0 -0 -0 0 1 1 1 1 0 -0 0 1 1 0 -0 -0 -0 -0 -0 -0 -0 -0 -0 0 1 0 -0 -0 -0 -1 -1 -1 -1 -0 -0 -0 -0 -0 0 1 1 1 1 1 -0 -0 0 0 -1 -2 -3 -4 -4 -4 -4 -3 -3 -3 -3 -2 -2 -1 -1 -1 -2 -1 -0 -0
2 2 2 1 1 1 -0 -0 0 1 1 1 1 1 1 1 1 0 -0 -0 0 0 1 1 1 1 0 0 0 0 0 -0 -0 -0 -0 -0 -0 -0 -0 0 0 0 0 -0 -0 -0 -0 -1 -1 -1 -1 -1 -1 -1 -1 -0 -0 -0 -0 0 1 1 1 1 1 1 -0 -1 -2 -4 -5 -4 -3 -3 -3 -4 -3 -3 -2 -1 -1 -1 -1 -1 -1 -1
3 2 1 1 1 0 0 1 1 2 2 1 1 1 1 1 1 0 0 0 1 1 1 1 1 1 0 1 1 0 -0 -0 -1 -1 -0 -0 -0 -0 0 0 0 -0 -0 -0 -0 -1 -1 -1 -1 -1 -1 -1 -1 -1 -1 -0 -0 -0 -1 -1 -0 1 1 1 1 1 1 -0 -1 -3 -4 -3 -3 -3 -4 -3 -2 -2 -2 -2 -1 -1 -1 -1 -1 -1
2 1 1 1 1 1 1 1 2 2 1 1 0 0 0 1 1 1 1 1 1 1 1 1 1 1 1 0 0 0 -0 -0 -0 -0 -0 -0 -0 -0 0 -0 -0 -0 -0 -0 -0 -1 -1 -1 -1 -1 -1 -1 -1 -1 -1 -1 -1 -1 -2 -1 -1 0 0 1 1 1 1 0 -1 -2 -2 -2 -3 -3 -4 -3 -3 -3 -2 -2 -1 -1 -1 -0 -0 -0
2 1 1 1 1 1 1 1 1 1 1 0 -0 -0 0 0 1 1 1 1 1 1 1 1 1 0 0 0 0 0 1 0 0 -0 -0 -0 -0 -0 -0 -0 -0 -0 -0 -0 -1 -1 -1 -1 -1 -1 -1 -0 -0 -1 -2 -1 -1 -1 -1 -1 -1 -0 -0 0 1 1 1 0 -0 -1 -1 -2 -2 -2 -2 -1 -2 -3 -3 -2 -1 -1 -1 -0 -0 -0
1 1 1 1 1 1 1 1 1 1 -0 -0 -0 -0 0 0 1 1 1 1 1 0 0 0 0 0 -0 -0 0 1 1 1 0 0 -0 -0 -0 -0 -0 -0 -0 -0 -0 -0 -1 -1 -1 -1 -2 -2 -1 0 0 -0 -2 -3 -3 -2 -1 -1 -1 -0 0 -0 0 0 1 1 0 -0 -1 -2 -2 -2 -1 -1 -2 -3 -3 -2 -1 -1 -1 -0 0 0
1 1 1 1 1 1 1 1 1 0 -0 -0 -0 -0 0 0 1 0 0 0 0 -0 -0 -0 -0 -0 -0 -0 0 1 1 1 0 -0 -1 -0 -0 -0 -0 -0 -0 0 -0 -0 -1 -1 -1 -1 -2 -3 -2 -0 1 2 -0 -2 -3 -3 -2 -2 -1 -0 0 0 -0 0 1 1 1 0 0 -1 -2 -2 -2 -1 -1 -2 -3 -2 -2 -1 -1 0 1 1
Height
5693 5692 5690 5690 5689 5688 5687 5687 5687 5687 5686 5685 5685 5685 5685 5684 5684 5684 5683 5683 5683 5682 5682 5681 5680 5680 5680 5679 5679 5678 5678 5677 5676 5676 5675 5675 5674 5673 5673 5672 5672 5671 5671 5671 5670 5670 5670 5670 5669 5669 5669 5669 5669 5669 5668 5668 5668 5668 5668 5668 5668 5668 5668 5669 5669 5669 5669 5669 5669 5669 5669 5669 5669 5670 5670 5670 5670 5670 5670 5670 5671 5671 5671 5671 5671 5671
5689 5688 5687 5686 5685 5685 5684 5683 5683 5683 5682 5681 5681 5681 5681 5680 5680 5680 5680 5679 5679 5678 5678 5677 5677 5676 5676 5675 5675 5675 5674 5674 5673 5673 5672 5671 5671 5670 5670 5669 5669 5669 5668 5668 5668 5667 5667 5667 5666 5666 5666 5666 5666 5666 5665 5665 5665 5665 5665 5665 5665 5666 5666 5666 5666 5667 5667 5667 5666 5666 5666 5666 5667 5667 5667 5668 5668 5668 5668 5668 5668 5669 5669 5669 5669 5669
5685 5684 5683 5682 5681 5681 5680 5679 5679 5679 5678 5678 5677 5677 5677 5677 5676 5676 5675 5675 5675 5674 5674 5673 5673 5673 5672 5672 5672 5671 5671 5670 5670 5669 5669 5668 5668 5667 5666 5666 5665 5665 5665 5665 5665 5664 5664 5664 5664 5664 5663 5663 5663 5663 5663 5663 5663 5663 5663 5663 5663 5663 5663 5664 5664 5664 5664 5664 5664 5664 5664 5664 5664 5665 5665 5665 5665 5666 5666 5666 5666 5666 5666 5667 5667 5667
5681 5680 5679 5678 5677 5677 5676 5676 5675 5675 5674 5674 5673 5673 5673 5673 5672 5672 5671 5671 5670 5670 5670 5669 5669 5669 5668 5668 5668 5668 5667 5667 5666 5666 5665 5665 5664 5664 5663 5663 5663 5662 5662 5662 5662 5661 5661 5661 5661 5661 5660 5660 5660 5660 5660 5660 5660 5660 5660 5660 5660 5661 5661 5661 5661 5661 5662 5662 5662 5662 5662 5662 5662 5662 5663 5663 5663 5664 5664 5664 5664 5664 5664 5665 5665 5665
5676 5675 5675 5674 5673 5673 5672 5672 5671 5671 5670 5670 5670 5669 5669 5669 5669 5668 5668 5667 5667 5666 5666 5665 5665 5665 5665 5665 5664 5664 5664 5663 5663 5662 5661 5661 5661 5660 5660 5660 5659 5659 5659 5659 5659 5658 5658 5658 5658 5658 5658 5658 5658 5657 5657 5657 5657 5657 5658 5658 5658 5658 5659 5659 5659 5659 5659 5659 5659 5659 5660 5660 5660 5660 5660 5660 5661 5661 5661 5661 5662 5662 5662 5662 5663 5663
5672 5671 5670 5670 5669 5669 5668 5668 5668 5667 5666 5666 5665 5665 5665 5665 5665 5665 5664 5664 5663 5663 5662 5662 5662 5661 5661 5661 5660 5660 5660 5659 5659 5658 5658 5658 5657 5657 5656 5656 5656 5656 5656 5656 5655 5655 5655 5655 5655 5655 5655 5655 5655 5655 5655 5655 5655 5655 5655 5655 5655 5656 5656 5656 5656 5656 5657 5657 5657 5657 5657 5657 5657 5658 5658 5658 5659 5659 5659 5659 5659 5660 5660 5660 5660 5660
5667 5666 5666 5665 5665 5665 5664 5664 5664 5663 5663 5662 5662 5662 5662 5662 5662 5661 5660 5660 5660 5659 5659 5658 5658 5658 5658 5657 5657 5656 5656 5655 5655 5655 5655 5654 5654 5654 5653 5653 5653 5653 5653 5653 5652 5652 5652 5652 5652 5652 5652 5652 5652 5652 5652 5652 5652 5652 5652 5653 5653 5653 5653 5654 5654 5654 5654 5654 5655 5655 5655 5655 5655 5655 5655 5656 5656 5656 5657 5657 5657 5657 5658 5658 5658 5658
5663 5662 5661 5661 5661 5661 5660 5660 5660 5660 5660 5659 5659 5658 5658 5658 5658 5658 5657 5657 5656 5656 5655 5655 5654 5654 5654 5654 5653 5653 5652 5652 5652 5651 5651 5651 5650 5650 5650 5650 5650 5650 5650 5649 5649 5649 5649 5649 5649 5649 5649 5649 5649 5649 5649 5649 5649 5650 5650 5650 5650 5650 5650 5651 5651 5651 5651 5652 5652 5652 5652 5652 5653 5653 5653 5653 5654 5654 5654 5655 5655 5655 5655 5655 5656 5656
5659 5658 5657 5657 5657 5657 5657 5656 5656 5655 5656 5656 5655 5655 5655 5655 5654 5654 5653 5653 5653 5653 5652 5652 5651 5650 5650 5650 5650 5650 5649 5649 5648 5648 5648 5647 5647 5647 5647 5647 5646 5646 5646 5646 5646 5646 5646 5646 5646 5646 5646 5646 5646 5646 5646 5646 5646 5646 5647 5647 5647 5648 5648 5648 5648 5649 5649 5649 5649 5650 5650 5650 5650 5650 5650 5651 5651 5651 5652 5652 5652 5653 5653 5653 5654 5654
5655 5654 5654 5653 5653 5653 5653 5653 5651 5651 5652 5652 5652 5651 5651 5651 5651 5650 5650 5649 5649 5649 5650 5649 5648 5647 5647 5646 5646 5646 5645 5645 5645 5645 5644 5644 5644 5644 5643 5643 5643 5643 5643 5643 5643 5643 5643 5643 5643 5643 5643 5643 5643 5643 5643 5643 5644 5644 5644 5644 5645 5645 5645 5645 5645 5646 5646 5646 5647 5647 5647 5647 5648 5648 5648 5648 5649 5649 5649 5650 5650 5650 5650 5651 5651 5651
5650 5650 5650 5650 5649 5649 5649 5649 5648 5648 5648 5648 5648 5647 5647 5647 5647 5647 5646 5645 5645 5645 5646 5645 5645 5644 5644 5643 5642 5642 5642 5641 5641 5641 5640 5640 5640 5640 5640 5640 5640 5640 5640 5640 5640 5640 5640 5640 5640 5640 5640 5640 5640 5640 5640 5640 5641 5641 5641 5641 5642 5642 5642 5642 5643 5643 5643 5644 5644 5644 5645 5645 5645 5645 5645 5646 5646 5646 5647 5647 5647 5648 5648 5648 5649 5649
5646 5646 5646 5646 5645 5645 5645 5645 5645 5645 5645 5645 5645 5644 5643 5643 5644 5644 5643 5642 5641 5641 5642 5641 5640 5640 5640 5640 5639 5638 5638 5638 5637 5637 5637 5637 5637 5637 5637 5637 5637 5637 5637 5636 5636 5636 5636 5636 5637 5637 5637 5637 5637 5637 5637 5638 5638 5638 5638 5639 5639 5639 5640 5640 5640 5640 5640 5641 5641 5641 5642 5642 5642 5643 5643 5643 5644 5644 5644 5645 5645 5645 5645 5646 5646 5646
5642 5642 5642 5642 5641 5641 5641 5642 5642 5641 5641 5641 5641 5641 5640 5640 5640 5640 5640 5639 5638 5638 5638 5637 5637 5636 5636 5636 5635 5635 5634 5634 5634 5634 5634 5634 5634 5634 5634 5633 5633 5633 5634 5633 5633 5633 5634 5634 5634 5634 5634 5634 5634 5634 5635 5635 5635 5635 5635 5636 5636 5636 5637 5637 5637 5638 5638 5638 5639 5639 5639 5640 5640 5640 5640 5641 5641 5641 5642 5642 5642 5643 5643 5643 5644 5644
5638 5638 5638 5638 5638 5638 5638 5638 5638 5637 5637 5637 5638 5638 5637 5636 5636 5636 5636 5635 5635 5634 5634 5634 5633 5632 5632 5632 5632 5631 5631 5630 5630 5630 5630 5630 5630 5630 5630 5630 5630 5630 5630 5630 5630 5630 5630 5630 5630 5630 5631 5631 5631 5631 5632 5632 5632 5632 5633 5633 5633 5634 5634 5634 5635 5635 5635 5635 5636 5636 5636 5637 5637 5638 5638 5638 5638 5639 5639 5639 5640 5640 5640 5641 5641 5641
5634 5634 5635 5634 5634 5634 5634 5634 5634 5634 5633 5634 5634 5634 5633 5633 5632 5632 5632 5631 5631 5630 5630 5630 5630 5629 5629 5628 5628 5628 5627 5627 5627 5627 5627 5627 5627 5627 5627 5627 5627 5627 5627 5627 5627 5627 5627 5628 5628 5628 5628 5628 5628 5629 5629 5629 5629 5630 5630 5630 5630 5631 5631 5631 5632 5632 5632 5633 5633 5633 5634 5634 5635 5635 5635 5635 5636 5636 5636 5637 5637 5637 5638 5638 5638 5639
5630 5631 5630 5630 5630 5630 5630 5630 5630 5630 5630 5630 5630 5630 5630 5629 5629 5629 5629 5628 5627 5627 5627 5626 5626 5625 5625 5625 5625 5625 5624 5624 5624 5625 5625 5624 5624 5624 5624 5624 5623 5624 5624 5624 5624 5624 5624 5625 5625 5625 5625 5625 5625 5626 5626 5626 5627 5627 5627 5627 5628 5628 5628 5629 5629 5629 5630 5630 5630 5631 5631 5631 5632 5632 5633 5633 5633 5634 5634 5634 5635 5635 5635 5635 5636 5636
5627 5627 5627 5627 5627 5626 5626 5627 5627 5627 5626 5626 5626 5626 5626 5625 5625 5625 5625 5624 5624 5624 5623 5623 5623 5622 5622 5622 5622 5622 5622 5621 5621 5621 5621 5621 5621 5621 5621 5621 5620 5620 5621 5621 5621 5621 5621 5621 5622 5622 5622 5622 5623 5623 5623 5624 5624 5624 5624 5625 5625 5625 5625 5626 5626 5627 5627 5627 5628 5628 5629 5629 5629 5630 5630 5630 5630 5631 5631 5631 5632 5632 5633 5633 5633 5634
5623 5623 5624 5623 5623 5623 5623 5623 5623 5623 5623 5622 5622 5622 5622 5622 5622 5621 5621 5621 5620 5620 5620 5620 5619 5619 5619 5618 5618 5618 5619 5618 5618 5618 5618 5618 5618 5618 5618 5618 5617 5617 5618 5618 5618 5618 5618 5619 5619 5619 5619 5620 5620 5620 5620 5621 5621 5621 5622 5622 5622 5623 5623 5623 5624 5624 5624 5625 5625 5625 5626 5626 5627 5627 5627 5628 5628 5628 5629 5629 5629 5630 5630 5630 5630 5631
5620 5620 5620 5620 5620 5620 5620 5620 5620 5619 5619 5619 5619 5619 5619 5618 5618 5618 5618 5617 5617 5617 5616 5616 5616 5616 5616 5615 5615 5615 5615 5615 5615 5615 5615 5615 5615 5615 5615 5615 5615 5615 5615 5615 5615 5615 5615 5616 5616 5616 5616 5617 5617 5617 5618 5618 5618 5619 5619 5620 5620 5620 5620 5621 5621 5621 5622 5622 5623 5623 5623 5624 5624 5624 5625 5625 5625 5625 5626 5626 5627 5627 5627 5628 5628 5628
5616 5616 5616 5616 5616 5616 5616 5616 5616 5616 5615 5615 5615 5615 5615 5615 5615 5614 5614 5614 5614 5614 5613 5613 5613 5613 5613 5613 5612 5612 5612 5612 5612 5612 5612 5612 5611 5611 5612 5612 5612 5612 5612 5612 5612 5612 5613 5613 5613 5614 5614 5614 5614 5615 5615 5615 5615 5616 5616 5617 5617 5618 5618 5618 5619 5619 5619 5620 5620 5620 5621 5621 5622 5622 5622 5622 5623 5623 5623 5624 5624 5624 5625 5625 5625 5625
5613 5612 5613 5613 5613 5613 5612 5612 5612 5612 5612 5611 5611 5611 5611 5611 5611 5610 5610 5610 5610 5610 5610 5610 5610 5610 5610 5610 5609 5609 5609 5609 5609 5609 5609 5609 5609 5609 5609 5609 5609 5609 5609 5609 5610 5610 5610 5610 5610 5610 5611 5611 5611 5612 5612 5613 5613 5613 5614 5614 5615 5615 5615 5616 5616 5616 5617 5617 5618 5618 5618 5619 5619 5619 5620 5620 5620 5620 5621 5621 5621 5622 5622 5622 5623 5623
5609 5609 5609 5609 5610 5609 5609 5609 5608 5608 5608 5608 5608 5608 5607 5607 5607 5607 5607 5607 5607 5607 5607 5607 5606 5606 5606 5606 5606 5606 5606 5606 5606 5606 5606 5605 5605 5606 5606 5606 5606 5606 5606 5607 5607 5607 5607 5607 5608 5608 5608 5608 5609 5609 5610 5610 5610 5611 5611 5612 5612 5613 5613 5613 5614 5614 5614 5615 5615 5615 5616 5616 5616 5617 5617 5617 5618 5618 5618 5619 5619 5619 5619 5620 5620 5620
5605 5605 5605 5605 5605 5605 5605 5605 5605 5605 5604 5604 5604 5604 5604 5604 5604 5604 5604 5604 5604 5604 5604 5604 5603 5603 5603 5603 5603 5603 5603 5603 5603 5603 5603 5602 5603 5603 5603 5603 5603 5603 5604 5604 5604 5604 5605 5605 5605 5605 5605 5606 5606 5607 5607 5607 5608 5608 5609 5609 5610 5610 5610 5611 5611 5611 5612 5612 5613 5613 5613 5614 5614 5614 5615 5615 5615 5615 5615 5616 5616 5616 5617 5617 5617 5617
5602 5602 5602 5602 5602 5601 5601 5601 5601 5601 5601 5601 5600 5600 5600 5600 5600 5600 5600 5600 5600 5600 5600 5600 5600 5600 5600 5600 5600 5600 5600 5600 5600 5600 5600 5600 5600 5600 5600 5600 5600 5601 5601 5601 5601 5602 5602 5602 5602 5603 5603 5603 5604 5604 5605 5605 5605 5606 5606 5607 5607 5607 5608 5608 5609 5609 5609 5610 5610 5610 5611 5611 5611 5612 5612 5612 5612 5613 5613 5613 5614 5614 5614 5614 5615 5615
5598 5598 5598 5598 5598 5598 5598 5598 5597 5597 5597 5597 5597 5597 5597 5597 5597 5597 5597 5597 5597 5597 5597 5597 5597 5597 5597 5598 5598 5597 5597 5597 5597 5597 5597 5597 5597 5598 5598 5598 5598 5598 5598 5599 5599 5599 5599 5599 5600 5600 5600 5601 5601 5602 5602 5603 5603 5603 5604 5604 5605 5605 5605 5606 5606 5606 5607 5607 5607 5608 5608 5609 5609 5609 5610 5610 5610 5610 5610 5610 5611 5611 5611 5611 5612 5612
5595 5595 5595 5595 5594 5594 5594 5594 5594 5594 5594 5594 5594 5593 5593 5593 5593 5594 5594 5594 5594 5594 5594 5594 5594 5594 5595 5595 5595 5595 5595 5595 5595 5595 5595 5595 5595 5595 5595 5595 5595 5595 5596 5596 5596 5596 5596 5597 5597 5598 5598 5599 5599 5600 5600 5600 5600 5601 5601 5602 5602 5602 5603 5603 5604 5604 5604 5605 5605 5605 5605 5606 5606 5606 5607 5607 5607 5607 5608 5608 5608 5608 5608 5609 5609 5609
5591 5591 5591 5591 5591 5590 5590 5590 5590 5590 5590 5590 5590 5590 5590 5590 5590 5590 5591 5591 5591 5591 5591 5591 5591 5591 5592 5592 5592 5592 5592 5592 5592 5592 5592 5592 5592 5592 5592 5592 5592 5592 5593 5593 5594 5594 5594 5595 5595 5595 5596 5596 5597 5597 5597 5598 5598 5599 5599 5599 5600 5600 5600 5601 5601 5601 5602 5602 5602 5603 5603 5603 5604 5604 5604 5605 5605 5605 5605 5605 5605 5605 5605 5606 5606 5606
5587 5587 5587 5587 5587 5587 5587 5587 5587 5587 5587 5587 5587 5587 5587 5587 5587 5587 5587 5588 5588 5588 5588 5588 5588 5588 5589 5589 5589 5589 5590 5589 5589 5589 5589 5589 5589 5589 5589 5590 5590 5590 5590 5591 5591 5591 5592 5592 5593 5593 5594 5594 5594 5595 5595 5595 5596 5596 5596 5597 5597 5598 5598 5598 5599 5599 5600 5600 5600 5600 5600 5601 5601 5601 5601 5602 5602 5602 5602 5602 5602 5603 5603 5603 5603 5603
5584 5584 5584 5583 5583 5583 5583 5583 5583 5583 5583 5583 5583 5583 5584 5584 5584 5584 5584 5585 5585 5585 5585 5585 5585 5585 5586 5586 5586 5587 5587 5586 5586 5586 5586 5586 5586 5586 5587 5587 5587 5587 5588 5589 5589 5589 5590 5590 5590 5591 5591 5592 5592 5592 5593 5593 5593 5594 5594 5595 5595 5595 5595 5596 5596 5597 5597 5597 5597 5598 5598 5598 5599 5599 5599 5599 5599 5599 5600 5600 5600 5600 5600 5600 5600 5600
5580 5580 5580 5580 5580 5580 5580 5580 5580 5580 5580 5580 5580 5580 5580 5581 5581 5581 5581 5582 5582 5582 5582 5582 5583 5583 5583 5583 5583 5584 5584 5584 5584 5583 5583 5583 5583 5584 5584 5585 5585 5585 5586 5586 5586 5587 5588 5588 5588 5589 5589 5589 5590 5590 5590 5591 5591 5591 5592 5592 5593 5593 5593 5594 5594 5594 5595 5595 5595 5595 5595 5595 5596 5596 5596 5596 5596 5596 5597 5597 5597 5597 5597 5597 5597 5597
5576 5576 5576 5576 5576 5576 5576 5576 5576 5576 5576 5577 5577 5577 5577 5578 5578 5578 5578 5579 5579 5579 5579 5580 5580 5580 5580 5580 5580 5580 5580 5581 5581 5580 5580 5581 5581 5581 5582 5582 5583 5583 5584 5584 5584 5585 5585 5586 5586 5586 5586 5587 5587 5588 5588 5589 5589 5589 5590 5590 5590 5590 5591 5591 5591 5592 5592 5592 5592 5593 5593 5593 5593 5593 5594 5594 5594 5594 5594 5594 5594 5594 5594 5594 5594 5594
5573 5573 5573 5573 5573 5573 5573 5573 5573 5573 5573 5574 5574 5574 5574 5575 5575 5575 5575 5575 5576 5576 5577 5577 5577 5577 5577 5577 5577 5577 5578 5578 5578 5578 5578 5578 5579 5579 5580 5580 5580 5581 5581 5582 5582 5582 5583 5583 5584 5585 5585 5585 5585 5585 5586 5586 5586 5587 5587 5588 5588 5588 5588 5589 5589 5589 5590 5590 5590 5590 5590 5590 5590 5590 5591 5591 5591 5591 5591 5591 5591 5591 5591 5591 5591 5591
5569 5569 5569 5569 5569 5570 5570 5570 5570 5570 5570 5570 5571 5571 5571 5572 5572 5572 5572 5573 5573 5573 5574 5574 5574 5574 5575 5575 5575 5575 5575 5575 5575 5575 5575 5576 5577 5577 5578 5578 5579 5579 5579 5580 5580 5580 5581 5581 5582 5582 5583 5583 5583 5583 5584 5584 5584 5585 5585 5585 5585 5585 5586 5586 5586 5587 5587 5587 5587 5587 5587 5588 5588 5588 5588 5588 5588 5588 5588 5588 5588 5588 5588 5588 5588 5588
5566 5566 5566 5566 5566 5566 5566 5566 5567 5567 5567 5567 5568 5568 5568 5569 5569 5569 5570 5570 5570 5570 5571 5571 5571 5571 5571 5572 5572 5572 5572 5573 5573 5573 5573 5574 5574 5575 5576 5576 5576 5577 5577 5578 5578 5578 5579 5579 5580 5580 5580 5581 5581 5581 5581 5582 5582 5582 5582 5583 5583 5583 5583 5584 5584 5584 5584 5585 5585 5585 5585 5585 5585 5585 5585 5585 5585 5585 5585 5585 5585 5585 5585 5585 5585 5585
5562 5562 5563 5563 5563 5563 5563 5564 5564 5564 5564 5565 5565 5565 5565 5566 5566 5566 5567 5567 5567 5567 5568 5568 5568 5568 5569 5569 5569 5570 5570 5570 5570 5571 5571 5571 5572 5573 5574 5574 5575 5575 5575 5575 5576 5576 5576 5577 5577 5578 5578 5578 5579 5579 5579 5579 5580 5580 5580 5580 5580 5581 5581 5581 5581 5581 5582 5582 5582 5582 5582 5582 5582 5582 5582 5582 5582 5582 5582 5582 5582 5582 5582 5582 5582 5582
5559 5559 5560 5560 5560 5560 5560 5560 5561 5561 5561 5562 5562 5562 5563 5563 5563 5564 5564 5564 5564 5564 5565 5565 5565 5565 5566 5566 5567 5567 5568 5568 5568 5569 5569 5569 5570 5570 5571 5572 5572 5573 5573 5573 5574 5574 5574 5575 5575 5575 5576 5576 5576 5577 5577 5577 5577 5577 5577 5578 5578 5578 5579 5579 5579 5579 5579 5579 5579 5580 5580 5580 5580 5579 5579 5579 5579 5579 5579 5580 5580 5580 5580 5580 5580 5580
5556 5556 5556 5556 5557 5557 5557 5558 5558 5558 5559 5559 5559 5560 5560 5560 5560 5560 5560 5561 5561 5561 5561 5562 5562 5562 5563 5564 5564 5565 5565 5565 5566 5566 5567 5567 5568 5568 5569 5570 5570 5570 5570 5571 5571 5572 5572 5572 5573 5573 5573 5574 5574 5574 5575 5575 5575 5575 5575 5575 5575 5576 5576 5576 5576 5576 5576 5576 5577 5577 5577 5577 5577 5577 5577 5576 5576 5576 5577 5577 5577 5577 5577 5577 5577 5577
5552 5553 5553 5553 5554 5554 5555 5555 5555 5555 5556 5556 5556 5557 5557 5557 5557 5557 5558 5558 5558 5558 5559 5559 5560 5560 5560 5561 5561 5562 5562 5563 5564 5564 5565 5565 5565 5566 5566 5567 5568 5568 5568 5569 5569 5570 5570 5570 5570 5571 5571 5571 5572 5572 5572 5573 5573 5573 5573 5573 5573 5573 5573 5574 5574 5574 5574 5574 5574 5574 5574 5574 5574 5574 5574 5574 5574 5574 5574 5574 5574 5574 5574 5574 5574 5574
5549 5550 5550 5550 5551 5551 5552 5552 5552 5552 5553 5553 5553 5554 5554 5554 5554 5555 5555 5555 5555 5555 5556 5556 5557 5557 5558 5559 5559 5560 5560 5561 5561 5562 5562 5563 5563 5564 5564 5565 5565 5565 5566 5566 5567 5567 5568 5568 5568 5569 5569 5569 5569 5570 5570 5570 5570 5571 5571 5571 5571 5571 5571 5571 5571 5571 5571 5571 5571 5571 5571 5571 5571 5571 5571 5571 5571 5571 5571 5571 5571 5571 5571 5571 5571 5571
5546 5546 5547 5548 5548 5548 5549 5549 5549 5550 5550 5550 5550 5550 5551 5551 5551 5552 5552 5552 5553 5553 5554 5554 5555 5555 5556 5556 5557 5557 5558 5559 5559 5560 5560 5560 5561 5561 5562 5562 5563 5563 5564 5564 5565 5565 5565 5566 5566 5566 5567 5567 5567 5567 5568 5568 5568 5568 5569 5569 5569 5569 5569 5568 5568 5568 5568 5568 5569 5569 5569 5569 5569 5569 5569 5569 5569 5568 5568 5568 5568 5568 5568 5568 5568 5567
5543 5543 5544 5545 5545 5545 5545 5546 5546 5546 5547 5547 5547 5548 5548 5548 5549 5549 5550 5550 5550 5551 5551 5552 5552 5553 5554 5554 5555 5555 5556 5556 5557 5557 5558 5558 5559 5559 5560 5560 5560 5561 5561 5562 5562 5563 5563 5564 5564 5564 5564 5565 5565 5565 5565 5566 5566 5566 5566 5566 5566 5566 5566 5566 5566 5566 5566 5566 5566 5566 5566 5566 5566 5566 5566 5565 5565 5565 5565 5565 5565 5565 5565 5565 5565 5564
5540 5541 5541 5542 5542 5542 5542 5543 5543 5543 5544 5544 5545 5545 5545 5546 5546 5547 5547 5548 5548 5549 5549 5550 5550 5551 5552 5552 5553 5553 5554 5554 5555 5555 5556 5556 5556 5557 5557 5558 5558 5559 5559 5560 5560 5560 5561 5561 5561 5562 5562 5562 5562 5563 5563 5564 5564 5564 5564 5564 5564 5564 5564 5564 5563 5563 5563 5563 5563 5563 5563 5563 5563 5563 5563 5563 5562 5562 5562 5562 5562 5562 5562 5561 5561 5561
5537 5538 5538 5539 5539 5539 5539 5540 5540 5540 5541 5541 5542 5542 5543 5543 5544 5544 5545 5545 5546 5547 5547 5548 5549 5549 5550 5550 5551 5551 5552 5552 5553 5553 5554 5554 5554 5555 5555 5556 5556 5556 5557 5557 5558 5558 5558 5559 5559 5559 5560 5560 5560 5560 5560 5561 5561 5562 5561 5561 5562 5562 5561 5561 5561 5561 5560 5560 5560 5560 5560 5560 5560 5560 5559 5559 5559 5559 5559 5559 5559 5559 5558 5558 5558 5557
5534 5535 5535 5535 5535 5536 5536 5537 5537 5538 5538 5539 5540 5540 5540 5541 5541 5542 5542 5543 5544 5545 5545 5546 5546 5547 5548 5548 5549 5550 5550 5550 5550 5551 5551 5552 5552 5553 5553 5554 5554 5554 5555 5555 5555 5556 5556 5556 5557 5557 5557 5557 5557 5558 5558 5559 5559 5559 5559 5559 5559 5559 5559 5559 5559 5558 5558 5558 5557 5557 5557 5556 5556 5556 5556 5556 5556 5556 5556 5555 5555 5555 5555 5555 5554 5554
5531 5531 5532 5532 5533 5533 5534 5534 5535 5535 5536 5536 5537 5537 5538 5538 5539 5540 5540 5541 5542 5542 5543 5544 5544 5545 5545 5546 5547 5548 5548 5548 5548 5549 5549 5550 5550 5551 5551 5551 5552 5552 5552 5553 5553 5553 5554 5554 5554 5554 5554 5555 5555 5555 5555 5556 5556 5556 5556 5556 5556 5556 5556 5556 5556 5556 5555 5555 5555 5554 5554 5553 5553 5553 5553 5553 5553 5552 5552 5552 5552 5551 5551 5551 5550 5550
5528 5529 5529 5530 5530 5530 5531 5532 5532 5533 5533 5534 5534 5535 5535 5536 5537 5537 5538 5539 5540 5540 5541 5542 5542 5543 5543 5544 5545 5545 5546 5546 5547 5547 5547 5548 5548 5549 5549 5549 5550 5550 5550 5550 5550 5551 5551 5551 5552 5552 5552 5552 5552 5553 5553 5553 5553 5553 5554 5554 5553 5553 5553 5553 5553 5553 5553 5552 5552 5551 5551 5550 5550 5550 5550 5550 5550 5549 5549 5549 5548 5548 5547 5547 5547 5546
5525 5526 5526 5527 5527 5528 5529 5529 5530 5530 5531 5531 5532 5533 5533 5534 5535 5535 5536 5537 5538 5538 5539 5540 5540 5541 5541 5542 5543 5543 5544 5544 5545 5545 5545 5545 5546 5546 5546 5547 5547 5547 5548 5548 5548 5548 5549 5549 5549 5549 5550 5550 5550 5550 5550 5550 5550 5550 5550 5550 5550 5550 5550 5550 5550 5550 5550 5549 5549 5548 5548 5547 5547 5547 5547 5546 5546 5546 5545 5545 5545 5544 5544 5544 5543 5543
5522 5523 5524 5524 5525 5525 5526 5526 5527 5528 5529 5529 5530 5531 5531 5532 5533 5533 5534 5535 5535 5536 5537 5538 5538 5539 5540 5540 5541 5541 5542 5542 5543 5543 5543 5544 5544 5544 5544 5544 5545 5545 5545 5545 5546 5546 5546 5546 5546 5546 5547 5547 5547 5547 5547 5548 5548 5547 5547 5547 5547 5547 5548 5547 5547 5547 5546 5546 5545 5545 5545 5544 5544 5544 5543 5543 5543 5543 5542 5542 5541 5541 5540 5540 5540 5540
5520 5520 5521 5522 5522 5523 5524 5524 5525 5526 5526 5527 5528 5529 5529 5530 5530 5531 5532 5533 5533 5534 5535 5535 5536 5537 5537 5538 5539 5539 5540 5540 5540 5541 5541 5541 5541 5541 5542 5542 5542 5543 5543 5543 5543 5544 5544 5544 5544 5544 5544 5544 5544 5545 5545 5545 5545 5545 5544 5544 5544 5545 5544 5544 5544 5544 5543 5543 5542 5542 5541 5541 5540 5540 5540 5540 5539 5539 5539 5539 5538 5538 5537 5537 5537 5536
5517 5518 5519 5519 5520 5521 5521 5522 5523 5524 5525 5525 5526 5527 5527 5528 5528 5529 5530 5530 5531 5532 5533 5534 5534 5535 5535 5536 5537 5537 5537 5538 5538 5539 5539 5539 5539 5539 5540 5540 5540 5540 5541 5541 5541 5541 5541 5541 5541 5541 5541 5541 5541 5541 5542 5542 5542 5542 5541 5541 5541 5541 5541 5541 5540 5540 5540 5539 5539 5538 5538 5537 5537 5536 5536 5536 5536 5535 5535 5535 5535 5534 5534 5534 5533 5533
5515 5515 5516 5517 5518 5519 5519 5520 5521 5522 5522 5523 5524 5525 5525 5526 5527 5527 5528 5529 5530 5530 5531 5532 5532 5533 5533 5534 5534 5535 5535 5535 5536 5536 5536 5536 5537 5537 5537 5537 5538 5538 5538 5538 5538 5538 5538 5538 5538 5538 5538 5538 5538 5538 5538 5539 5539 5539 5539 5538 5538 5538 5538 5538 5537 5537 5536 5536 5535 5535 5535 5534 5534 5533 5533 5533 5532 5532 5532 5532 5531 5531 5531 5530 5530 5530